Time,TemperatureF,DewpointF,PressureIn,WindDirection,WindDirectionDegrees,WindSpeedMPH,WindSpeedGustMPH,Humidity,HourlyPrecipIn,Conditions,Clouds,dailyrainin,SoftwareType,DateUTC
2013-03-21 00:02:00,17.0,5.0,-100.00,North,10,12.0,16.0,59,0.00,,,-99.99,,2013-03-21 05:02:00,
2013-03-21 00:12:00,17.0,5.0,-100.00,North,5,12.0,17.0,60,0.00,,,-99.99,,2013-03-21 05:12:00,
2013-03-21 00:22:00,16.0,5.0,-100.00,NNE,15,11.0,17.0,60,0.00,,,-99.99,,2013-03-21 05:22:00,
2013-03-21 00:32:00,16.0,5.0,-100.00,NNE,20,10.0,15.0,61,0.00,,,-99.99,,2013-03-21 05:32:00,
2013-03-21 00:43:00,16.0,5.0,-100.00,NNE,20,10.0,15.0,61,0.00,,,-99.99,,2013-03-21 05:43:00,
2013-03-21 00:52:00,15.0,5.0,-100.00,NNE,15,10.0,13.0,63,0.00,,,-99.99,,2013-03-21 05:52:00,
2013-03-21 01:02:00,15.0,5.0,-100.00,NNE,15,10.0,13.0,63,0.00,,,-99.99,,2013-03-21 06:02:00,
2013-03-21 01:12:00,15.0,5.0,-100.00,North,10,10.0,12.0,63,0.00,,,-99.99,,2013-03-21 06:12:00,
2013-03-21 01:22:00,15.0,5.0,-100.00,North,5,9.0,13.0,64,0.00,,,-99.99,,2013-03-21 06:22:00,
2013-03-21 01:32:00,15.0,5.0,-100.00,North,10,9.0,12.0,64,0.00,,,-99.99,,2013-03-21 06:32:00,
2013-03-21 01:42:00,15.0,5.0,-100.00,NNE,15,11.0,12.0,65,0.00,,,-99.99,,2013-03-21 06:42:00,
2013-03-21 01:52:00,14.0,5.0,-100.00,North,10,8.0,11.0,66,0.00,,,-99.99,,2013-03-21 06:52:00,
2013-03-21 02:02:00,14.0,5.0,-100.00,North,10,8.0,11.0,66,0.00,,,-99.99,,2013-03-21 07:02:00,
2013-03-21 02:12:00,14.0,5.0,-100.00,North,10,7.0,12.0,66,0.00,,,-99.99,,2013-03-21 07:12:00,
2013-03-21 02:22:00,14.0,5.0,-100.00,North,10,8.0,11.0,67,0.00,,,-99.99,,2013-03-21 07:22:00,
2013-03-21 02:32:00,13.0,5.0,-100.00,North,10,7.0,11.0,68,0.00,,,-99.99,,2013-03-21 07:32:00,
2013-03-21 02:42:00,13.0,5.0,-100.00,North,10,7.0,11.0,68,0.00,,,-99.99,,2013-03-21 07:42:00,
2013-03-21 02:52:00,13.0,5.0,-100.00,NNE,15,7.0,9.0,68,0.00,,,-99.99,,2013-03-21 07:52:00,
2013-03-21 03:02:00,13.0,5.0,-100.00,NNE,15,7.0,9.0,68,0.00,,,-99.99,,2013-03-21 08:02:00,
2013-03-21 03:13:00,13.0,5.0,-100.00,North,10,6.0,8.0,69,0.00,,,-99.99,,2013-03-21 08:13:00,
2013-03-21 03:22:00,13.0,5.0,-100.00,North,0,7.0,9.0,69,0.00,,,-99.99,,2013-03-21 08:22:00,
2013-03-21 03:33:00,13.0,5.0,-100.00,North,10,6.0,9.0,69,0.00,,,-99.99,,2013-03-21 08:33:00,
2013-03-21 03:42:00,13.0,5.0,-100.00,North,10,6.0,9.0,69,0.00,,,-99.99,,2013-03-21 08:42:00,
2013-03-21 03:52:00,12.0,5.0,-100.00,North,5,7.0,9.0,70,0.00,,,-99.99,,2013-03-21 08:52:00,
2013-03-21 04:02:00,12.0,5.0,-100.00,North,5,7.0,9.0,70,0.00,,,-99.99,,2013-03-21 09:02:00,
2013-03-21 04:11:00,12.0,5.0,-100.00,North,10,6.0,8.0,70,0.00,,,-99.99,,2013-03-21 09:11:00,
2013-03-21 04:21:00,12.0,4.0,-100.00,North,5,6.0,8.0,71,0.00,,,-99.99,,2013-03-21 09:21:00,
2013-03-21 04:33:00,12.0,5.0,-100.00,North,10,7.0,9.0,71,0.00,,,-99.99,,2013-03-21 09:33:00,
2013-03-21 04:43:00,12.0,5.0,-100.00,North,10,7.0,9.0,71,0.00,,,-99.99,,2013-03-21 09:43:00,
2013-03-21 04:53:00,12.0,5.0,-100.00,NNE,20,6.0,8.0,71,0.00,,,-99.99,,2013-03-21 09:53:00,
2013-03-21 05:03:00,12.0,4.0,-100.00,NNE,20,6.0,8.0,72,0.00,,,-99.99,,2013-03-21 10:03:00,
2013-03-21 05:12:00,11.0,4.0,-100.00,NNE,25,6.0,7.0,72,0.00,,,-99.99,,2013-03-21 10:12:00,
2013-03-21 05:22:00,11.0,4.0,-100.00,NNE,25,6.0,7.0,72,0.00,,,-99.99,,2013-03-21 10:22:00,
2013-03-21 05:33:00,11.0,4.0,-100.00,North,10,4.0,6.0,73,0.00,,,-99.99,,2013-03-21 10:33:00,
2013-03-21 05:42:00,11.0,4.0,-100.00,North,10,4.0,6.0,73,0.00,,,-99.99,,2013-03-21 10:42:00,
2013-03-21 05:52:00,10.0,4.0,-100.00,NNE,20,4.0,5.0,74,0.00,,,-99.99,,2013-03-21 10:52:00,
2013-03-21 06:03:00,10.0,4.0,-100.00,NNE,20,4.0,5.0,74,0.00,,,-99.99,,2013-03-21 11:03:00,
2013-03-21 06:12:00,11.0,4.0,-100.00,North,0,2.0,4.0,74,0.00,,,-99.99,,2013-03-21 11:12:00,
2013-03-21 06:22:00,11.0,4.0,-100.00,NNW,340,4.0,4.0,74,0.00,,,-99.99,,2013-03-21 11:22:00,
2013-03-21 06:33:00,10.0,4.0,-100.00,North,0,3.0,6.0,74,0.00,,,-99.99,,2013-03-21 11:33:00,
2013-03-21 06:42:00,10.0,4.0,-100.00,North,0,3.0,6.0,74,0.00,,,-99.99,,2013-03-21 11:42:00,
2013-03-21 06:52:00,11.0,4.0,-100.00,NNW,345,4.0,6.0,74,0.00,,,-99.99,,2013-03-21 11:52:00,
2013-03-21 07:02:00,11.0,4.0,-100.00,NNW,345,4.0,6.0,74,0.00,,,-99.99,,2013-03-21 12:02:00,
2013-03-21 07:12:00,10.0,4.0,-100.00,North,5,5.0,6.0,74,0.00,,,-99.99,,2013-03-21 12:12:00,
2013-03-21 07:32:00,11.0,5.0,-100.00,NNW,330,6.0,7.0,74,0.00,,,-99.99,,2013-03-21 12:32:00,
2013-03-21 07:42:00,11.0,5.0,-100.00,NNW,330,6.0,7.0,74,0.00,,,-99.99,,2013-03-21 12:42:00,
2013-03-21 07:52:00,12.0,6.0,-100.00,North,0,3.0,6.0,74,0.00,,,-99.99,,2013-03-21 12:52:00,
2013-03-21 08:02:00,12.0,6.0,-100.00,North,0,3.0,6.0,74,0.00,,,-99.99,,2013-03-21 13:02:00,
2013-03-21 08:12:00,13.0,6.0,-100.00,North,5,4.0,6.0,73,0.00,,,-99.99,,2013-03-21 13:12:00,
2013-03-21 08:22:00,13.0,6.0,-100.00,North,0,4.0,6.0,73,0.00,,,-99.99,,2013-03-21 13:22:00,
2013-03-21 08:32:00,14.0,7.0,-100.00,North,10,4.0,8.0,71,0.00,,,-99.99,,2013-03-21 13:32:00,
2013-03-21 08:42:00,14.0,7.0,-100.00,North,10,4.0,8.0,71,0.00,,,-99.99,,2013-03-21 13:42:00,
2013-03-21 08:52:00,15.0,6.0,-100.00,NE,45,4.0,7.0,68,0.00,,,-99.99,,2013-03-21 13:52:00,
2013-03-21 09:02:00,15.0,6.0,-100.00,NE,45,4.0,7.0,68,0.00,,,-99.99,,2013-03-21 14:02:00,
2013-03-21 09:12:00,17.0,8.0,-100.00,North,0,3.0,6.0,67,0.00,,,-99.99,,2013-03-21 14:12:00,
2013-03-21 09:21:00,18.0,8.0,-100.00,North,5,3.0,6.0,66,0.00,,,-99.99,,2013-03-21 14:21:00,
2013-03-21 09:32:00,20.0,9.0,-100.00,NNW,335,4.0,6.0,62,0.00,,,-99.99,,2013-03-21 14:32:00,
2013-03-21 09:42:00,20.0,9.0,-100.00,NNW,335,4.0,6.0,62,0.00,,,-99.99,,2013-03-21 14:42:00,
2013-03-21 09:52:00,22.0,9.0,-100.00,North,355,4.0,7.0,58,0.00,,,-99.99,,2013-03-21 14:52:00,
2013-03-21 10:03:00,22.0,9.0,-100.00,North,355,4.0,7.0,58,0.00,,,-99.99,,2013-03-21 15:03:00,
2013-03-21 10:12:00,22.0,9.0,-100.00,NNW,340,2.0,8.0,55,0.00,,,-99.99,,2013-03-21 15:12:00,
2013-03-21 10:22:00,23.0,8.0,-100.00,North,0,4.0,7.0,53,0.00,,,-99.99,,2013-03-21 15:22:00,
2013-03-21 10:33:00,23.0,7.0,-100.00,North,350,7.0,9.0,49,0.00,,,-99.99,,2013-03-21 15:33:00,
2013-03-21 10:42:00,23.0,7.0,-100.00,North,350,7.0,9.0,49,0.00,,,-99.99,,2013-03-21 15:42:00,
2013-03-21 10:52:00,24.0,6.0,-100.00,NNW,335,7.0,11.0,45,0.00,,,-99.99,,2013-03-21 15:52:00,
2013-03-21 11:03:00,24.0,6.0,-100.00,NNW,335,7.0,11.0,45,0.00,,,-99.99,,2013-03-21 16:03:00,
2013-03-21 11:12:00,25.0,6.0,-100.00,North,0,4.0,8.0,44,0.00,,,-99.99,,2013-03-21 16:12:00,
2013-03-21 11:23:00,26.0,6.0,-100.00,NNW,335,5.0,10.0,43,0.00,,,-99.99,,2013-03-21 16:23:00,
2013-03-21 11:33:00,27.0,6.0,-100.00,WNW,300,7.0,11.0,40,0.00,,,-99.99,,2013-03-21 16:33:00,
2013-03-21 11:42:00,27.0,6.0,-100.00,WNW,300,7.0,11.0,40,0.00,,,-99.99,,2013-03-21 16:42:00,
2013-03-21 11:52:00,27.0,5.0,-100.00,North,0,6.0,11.0,39,0.00,,,-99.99,,2013-03-21 16:52:00,
2013-03-21 12:02:00,27.0,5.0,-100.00,North,0,6.0,11.0,39,0.00,,,-99.99,,2013-03-21 17:02:00,
2013-03-21 12:12:00,28.0,6.0,-100.00,NW,315,6.0,12.0,39,0.00,,,-99.99,,2013-03-21 17:12:00,
2013-03-21 12:23:00,27.0,5.0,-100.00,NNE,15,7.0,12.0,38,0.00,,,-99.99,,2013-03-21 17:23:00,
2013-03-21 12:32:00,29.0,7.0,-100.00,NW,320,5.0,12.0,38,0.00,,,-99.99,,2013-03-21 17:32:00,
2013-03-21 12:42:00,29.0,7.0,-100.00,NW,320,5.0,12.0,38,0.00,,,-99.99,,2013-03-21 17:42:00,
2013-03-21 12:52:00,28.0,6.0,-100.00,North,0,6.0,10.0,37,0.00,,,-99.99,,2013-03-21 17:52:00,
2013-03-21 13:02:00,28.0,6.0,-100.00,North,0,6.0,10.0,37,0.00,,,-99.99,,2013-03-21 18:02:00,
2013-03-21 13:12:00,28.0,5.0,-100.00,NNW,340,7.0,11.0,36,0.00,,,-99.99,,2013-03-21 18:12:00,
2013-03-21 13:22:00,27.0,4.0,-100.00,NNE,15,7.0,12.0,36,0.00,,,-99.99,,2013-03-21 18:22:00,
2013-03-21 13:32:00,30.0,7.0,-100.00,NNE,15,4.0,10.0,36,0.00,,,-99.99,,2013-03-21 18:32:00,
2013-03-21 13:42:00,30.0,7.0,-100.00,NNE,15,4.0,10.0,36,0.00,,,-99.99,,2013-03-21 18:42:00,
2013-03-21 13:52:00,30.0,6.0,-100.00,NNW,330,7.0,15.0,36,0.00,,,-99.99,,2013-03-21 18:52:00,
2013-03-21 14:02:00,30.0,6.0,-100.00,NNW,330,7.0,15.0,36,0.00,,,-99.99,,2013-03-21 19:02:00,
2013-03-21 14:12:00,29.0,6.0,-100.00,North,0,7.0,11.0,36,0.00,,,-99.99,,2013-03-21 19:12:00,
2013-03-21 14:22:00,29.0,6.0,-100.00,NNE,15,8.0,11.0,37,0.00,,,-99.99,,2013-03-21 19:22:00,
2013-03-21 14:32:00,29.0,6.0,-100.00,NNE,15,4.0,14.0,37,0.00,,,-99.99,,2013-03-21 19:32:00,
2013-03-21 14:42:00,29.0,6.0,-100.00,NNE,15,4.0,14.0,37,0.00,,,-99.99,,2013-03-21 19:42:00,
2013-03-21 14:52:00,29.0,6.0,-100.00,NNE,25,10.0,14.0,37,0.00,,,-99.99,,2013-03-21 19:52:00,
2013-03-21 15:02:00,29.0,6.0,-100.00,NNE,25,10.0,14.0,37,0.00,,,-99.99,,2013-03-21 20:02:00,
2013-03-21 15:12:00,29.0,6.0,-100.00,NNE,25,10.0,14.0,37,0.00,,,-99.99,,2013-03-21 20:12:00,
2013-03-21 15:22:00,31.0,8.0,-100.00,NNW,340,4.0,11.0,36,0.00,,,-99.99,,2013-03-21 20:22:00,
2013-03-21 15:33:00,30.0,7.0,-100.00,SSE,155,2.0,10.0,36,0.00,,,-99.99,,2013-03-21 20:33:00,
2013-03-21 15:42:00,30.0,7.0,-100.00,SSE,155,2.0,10.0,36,0.00,,,-99.99,,2013-03-21 20:42:00,
2013-03-21 15:53:00,31.0,8.0,-100.00,NNE,15,1.0,9.0,36,0.00,,,-99.99,,2013-03-21 20:53:00,
2013-03-21 16:02:00,31.0,8.0,-100.00,NNE,15,1.0,9.0,36,0.00,,,-99.99,,2013-03-21 21:02:00,
2013-03-21 16:12:00,31.0,8.0,-100.00,NNE,15,1.0,9.0,36,0.00,,,-99.99,,2013-03-21 21:12:00,
2013-03-21 16:22:00,31.0,8.0,-100.00,NNE,15,1.0,9.0,36,0.00,,,-99.99,,2013-03-21 21:22:00,
2013-03-21 16:33:00,31.0,8.0,-100.00,NNE,15,1.0,9.0,36,0.00,,,-99.99,,2013-03-21 21:33:00,
2013-03-21 16:43:00,32.0,9.0,-100.00,NNE,20,2.0,-999.0,37,0.00,,,-99.99,,2013-03-21 21:43:00,
2013-03-21 16:53:00,31.0,9.0,-100.00,NNE,30,3.0,8.0,38,0.00,,,-99.99,,2013-03-21 21:53:00,
2013-03-21 17:03:00,31.0,9.0,-100.00,NNE,30,3.0,8.0,38,0.00,,,-99.99,,2013-03-21 22:03:00,
2013-03-21 17:13:00,30.0,9.0,-100.00,NE,45,4.0,11.0,39,0.00,,,-99.99,,2013-03-21 22:13:00,
2013-03-21 17:23:00,30.0,9.0,-100.00,NNE,15,5.0,11.0,39,0.00,,,-99.99,,2013-03-21 22:23:00,
2013-03-21 17:33:00,31.0,9.0,-100.00,NE,45,5.0,7.0,39,0.00,,,-99.99,,2013-03-21 22:33:00,
2013-03-21 17:42:00,31.0,9.0,-100.00,NE,45,5.0,7.0,39,0.00,,,-99.99,,2013-03-21 22:42:00,
2013-03-21 17:52:00,29.0,8.0,-100.00,ENE,65,7.0,15.0,40,0.00,,,-99.99,,2013-03-21 22:52:00,
2013-03-21 18:02:00,29.0,8.0,-100.00,ENE,65,7.0,15.0,40,0.00,,,-99.99,,2013-03-21 23:02:00,
2013-03-21 18:12:00,29.0,9.0,-100.00,ENE,65,7.0,12.0,41,0.00,,,-99.99,,2013-03-21 23:12:00,
2013-03-21 18:22:00,29.0,8.0,-100.00,ENE,65,6.0,11.0,40,0.00,,,-99.99,,2013-03-21 23:22:00,
2013-03-21 18:32:00,29.0,8.0,-100.00,NE,45,4.0,9.0,40,0.00,,,-99.99,,2013-03-21 23:32:00,
2013-03-21 18:42:00,29.0,8.0,-100.00,NE,45,4.0,9.0,40,0.00,,,-99.99,,2013-03-21 23:42:00,
2013-03-21 18:52:00,29.0,9.0,-100.00,NE,45,5.0,8.0,42,0.00,,,-99.99,,2013-03-21 23:52:00,
2013-03-21 19:02:00,29.0,9.0,-100.00,NE,45,5.0,8.0,42,0.00,,,-99.99,,2013-03-22 00:02:00,
2013-03-21 19:12:00,29.0,9.0,-100.00,ENE,65,6.0,7.0,43,0.00,,,-99.99,,2013-03-22 00:12:00,
2013-03-21 19:22:00,28.0,9.0,-100.00,ENE,65,4.0,7.0,43,0.00,,,-99.99,,2013-03-22 00:22:00,
2013-03-21 19:32:00,27.0,10.0,-100.00,ENE,65,4.0,6.0,48,0.00,,,-99.99,,2013-03-22 00:32:00,
2013-03-21 19:42:00,27.0,10.0,-100.00,ENE,65,4.0,6.0,48,0.00,,,-99.99,,2013-03-22 00:42:00,
2013-03-21 19:52:00,27.0,11.0,-100.00,ENE,65,6.0,7.0,52,0.00,,,-99.99,,2013-03-22 00:52:00,
2013-03-21 20:02:00,27.0,11.0,-100.00,ENE,65,6.0,7.0,52,0.00,,,-99.99,,2013-03-22 01:02:00,
2013-03-21 20:12:00,26.0,12.0,-100.00,ENE,65,6.0,7.0,54,0.00,,,-99.99,,2013-03-22 01:12:00,
2013-03-21 20:22:00,26.0,13.0,-100.00,ENE,70,7.0,8.0,57,0.00,,,-99.99,,2013-03-22 01:22:00,
2013-03-21 20:32:00,26.0,14.0,-100.00,ENE,75,6.0,7.0,60,0.00,,,-99.99,,2013-03-22 01:32:00,
2013-03-21 20:42:00,26.0,14.0,-100.00,ENE,75,6.0,7.0,60,0.00,,,-99.99,,2013-03-22 01:42:00,
2013-03-21 20:52:00,26.0,15.0,-100.00,ENE,75,5.0,7.0,62,0.00,,,-99.99,,2013-03-22 01:52:00,
2013-03-21 21:02:00,26.0,15.0,-100.00,ENE,75,5.0,7.0,62,0.00,,,-99.99,,2013-03-22 02:02:00,
2013-03-21 21:12:00,26.0,15.0,-100.00,ENE,75,5.0,6.0,63,0.00,,,-99.99,,2013-03-22 02:12:00,
2013-03-21 21:22:00,25.0,15.0,-100.00,ENE,75,4.0,6.0,64,0.00,,,-99.99,,2013-03-22 02:22:00,
2013-03-21 21:32:00,25.0,15.0,-100.00,East,80,4.0,6.0,66,0.00,,,-99.99,,2013-03-22 02:32:00,
2013-03-21 21:42:00,25.0,15.0,-100.00,East,80,4.0,6.0,66,0.00,,,-99.99,,2013-03-22 02:42:00,
2013-03-21 21:52:00,25.0,15.0,-100.00,East,80,2.0,4.0,66,0.00,,,-99.99,,2013-03-22 02:52:00,
2013-03-21 22:02:00,25.0,15.0,-100.00,East,80,2.0,4.0,66,0.00,,,-99.99,,2013-03-22 03:02:00,
2013-03-21 22:12:00,25.0,15.0,-100.00,ENE,60,3.0,4.0,66,0.00,,,-99.99,,2013-03-22 03:12:00,
2013-03-21 22:22:00,25.0,15.0,-100.00,NE,55,4.0,4.0,67,0.00,,,-99.99,,2013-03-22 03:22:00,
2013-03-21 22:33:00,24.0,15.0,-100.00,East,80,2.0,4.0,67,0.00,,,-99.99,,2013-03-22 03:33:00,
2013-03-21 22:42:00,24.0,15.0,-100.00,East,80,2.0,4.0,67,0.00,,,-99.99,,2013-03-22 03:42:00,
2013-03-21 22:52:00,24.0,15.0,-100.00,East,85,3.0,4.0,68,0.00,,,-99.99,,2013-03-22 03:52:00,
2013-03-21 23:03:00,24.0,15.0,-100.00,East,85,3.0,4.0,68,0.00,,,-99.99,,2013-03-22 04:03:00,
2013-03-21 23:12:00,24.0,15.0,-100.00,ENE,70,3.0,4.0,67,0.00,,,-99.99,,2013-03-22 04:12:00,
2013-03-21 23:23:00,24.0,15.0,-100.00,ENE,60,4.0,4.0,67,0.00,,,-99.99,,2013-03-22 04:23:00,
2013-03-21 23:32:00,24.0,15.0,-100.00,NE,55,3.0,4.0,68,0.00,,,-99.99,,2013-03-22 04:32:00,
2013-03-21 23:42:00,24.0,15.0,-100.00,NE,55,3.0,4.0,68,0.00,,,-99.99,,2013-03-22 04:42:00,
2013-03-21 23:52:00,23.0,15.0,-100.00,NE,50,4.0,4.0,70,0.00,,,-99.99,,2013-03-22 04:52:00,